STARLINK-37511, 69512

Orbit data source: Space-Track

STARLINK-37511, 69512 is a payload satellite owned by SpaceX/Seattle (US) in LEO that was launched on Fri, 12 Jun 2026 UTC via an FALCON 9 launch vehicle from the Air Force Eastern Test Range (AFETR). Payload-class satellites include a variety of spacecraft equipped with specific instruments for various scientific and technological missions. These include communications satellites like Starlink; space stations such as the ISS; scientific satellites like the Hubble; Earth observation satellites from companies like Planet Labs, Umbra, and HawkEye 360; GPS; miniature CubeSats for education and research; and military/defense satellites.

Loading next visibility...
Identifier
69512, 2026-133E
Orbit
LEO
Country
Flag of USUS
Related business
Manufacturer
SpaceX/Seattle
Mission
Operational spacecraft
Bus & Motor
STARLINK V2MO, Unknown motor
Mass
575 kg wet, ~530 kg dry
Launch date (UTC)
2026-06-12 (1 week ago)
Launch vehicle
FALCON 9
Launch site
Air Force Eastern Test Range (AFETR)
Object type
Payload
Rocket body
Debris
Shape & HBR
Unknown
Radar Cross Section
RCS unknown

Expand to show TLE details & history
Last TLE update: 10 hours ago

TLE from 10 hours ago
0 STARLINK-37511
1 69512U 26133E   26171.41668980 -.01817637  98178-3 -36505-2 0  9999
2 69512  53.1586 306.2008 0000516  73.7412 287.7942 15.99172041  2389
Epoch: 2026-06-20T10:00Z
TLE epoch observation values (Epoch: 2026-06-20T10:00:01.998Z)
Latitude
1.14899°
Longitude
-111.58304°
Altitude
277.394 km
Speed
7.742 km/s
True Right ascension
20h 28m 13s
True Declination
1° 08' 30"
Sunlit
Object was in full shadow at epoch
Visualization orbit readout
Latitude
Unknown
Longitude
Unknown
Altitude
Unknown
Speed
Unknown
Apparent Right ascension
Unknown
Apparent Declination
Unknown
Sunlit
N/A
Visualization observer readout
Local Sidereal Time
07:13:37
Azimuth
Unknown
Elevation
Unknown
Doppler factor
Unknown
Orbital elements
Apogee altitude
277.322 km
Perigee altitude
276.635 km
Semi-major axis
6,655.116 km
Eccentricity
0.00005
Inclination
53.1586°
RAAN
306.2008°
Arg. of periapsis
73.7412°
True anomaly
287.78857°
Mean anomaly
287.7942°
Eccentric anomaly
287.79138°
Mean motion
3.9977 °/min
Orbital period
90.05 mins
BSTAR
-0.0036505
Loading maneuver chart data...
Computing Atmospheric mass density...
Loading historical data...
Loading historical data...
Loading historical data...
Loading historical data...
Loading historical data...
Loading historical data...
Loading historical data...

Documentation

Showing up to 5 results
|